Location: Unspecified
(0.0000°N, 0.0000°E)
Time: 02:00:12
(UTC+00:00)

TRS 6 - Visible Passes

Search period start: 22 April 2019 00:00
Search period end: 02 May 2019 00:00
Orbit: 3570 x 3718 km, 87.3° (Epoch: 20 April)

Date Brightness Start Highest point End Pass type
(mag) Time Alt. Az. Time Alt. Az. Time Alt. Az.
22 Apr ? 02:55:27 10° N 03:14:03 78° E 03:32:36 10° S visible
23 Apr ? 01:13:32 10° NE 01:26:45 24° E 01:39:41 10° SE visible
23 Apr ? 03:53:51 10° N 04:11:49 60° W 04:30:00 10° SSW visible
24 Apr ? 02:06:43 10° NNE 02:24:24 52° E 02:41:55 10° SSE visible
24 Apr ? 04:55:06 10° NNW 05:09:32 29° W 05:24:18 10° SW visible
25 Apr ? 00:35:49 10° E 00:37:15 10° E 00:38:41 10° E visible
25 Apr ? 03:03:32 10° N 03:22:10 88° W 03:40:52 10° S visible
26 Apr ? 01:19:27 10° NE 01:34:48 32° E 01:49:53 10° SSE visible
26 Apr ? 04:02:46 10° NNW 04:19:55 48° W 04:37:23 10° SSW visible
27 Apr ? 02:14:13 10° NNE 02:32:31 65° E 02:50:43 10° S visible
27 Apr ? 05:05:36 10° NW 05:17:36 21° W 05:29:54 10° SW visible
28 Apr ? 00:35:16 10° ENE 00:45:16 17° E 00:55:06 10° SE visible
28 Apr ? 03:11:53 10° N 03:30:17 73° W 03:48:52 10° S visible
29 Apr ? 01:26:07 10° NNE 01:42:53 41° E 01:59:26 10° SSE visible
29 Apr ? 04:12:02 10° NNW 04:28:01 38° W 04:44:23 10° SSW visible
30 Apr ? 02:22:03 10° N 02:40:38 78° E 02:59:14 10° S visible
30 Apr ? 05:17:43 10° WNW 05:25:39 14° W 05:33:44 10° WSW visible
01 May ? 00:39:59 10° NE 00:53:19 24° E 01:06:25 10° SE visible
01 May ? 03:20:30 10° N 03:38:24 60° W 03:56:34 10° SSW visible
